Simultaneous Nadir Overpasses (SNOs) Predictions

Prediction of SNOs between AQUA and GOES-15 Satellite Orbit:

Table of predicted SNOs for the next 14.0 days since TLE Epoch: 9/25/2021
Index Date Time (AQUA) AQUA Lat,Lon GOES-15 Lat,Lon Distance(km) Time Diff (sec)
1 09/26/2021 10:07:02 0.35,-127.82 0.36,-127.71 12.25 80
2 09/28/2021 09:54:51 -0.26,-124.87 0.35,-127.63 315.52 80
3 09/28/2021 22:16:15 -0.85,-130.05 -0.33,-127.59 280.51 80
4 09/30/2021 22:04:04 -0.22,-127.10 -0.33,-127.50 46.30 80
5 10/02/2021 21:51:52 0.35,-124.13 -0.33,-127.41 372.74 80
6 10/03/2021 10:13:09 0.68,-129.30 0.31,-127.41 213.90 80
7 10/05/2021 10:00:57 0.10,-126.33 0.31,-127.32 112.29 80
8 10/05/2021 22:22:20 -1.20,-131.52 -0.28,-127.27 483.55 80
9 10/07/2021 09:48:45 -0.49,-123.37 0.31,-127.23 438.21 80
10 10/07/2021 22:10:08 -0.61,-128.56 -0.29,-127.18 157.85 80
